Location: C.E.K. Mees Observatory
(42.7003°N, 77.4088°W)
Time: 18:22:24
(UTC-05:00)

Envisat - Pass Details

Date: 15 October 2017
Orbit: 764 x 766 km, 98.2° (Epoch: 17 December)

Event Time Altitude Azimuth Distance (km) Brightness Sun altitude
Exits shadow 21:23:17 43° 305° (NW) 1,075 4.0 -32.8°
Drops below altitude 10° 21:27:02 10° 337° (NNW) 2,312 5.9 -33.5°
Sets 21:29:25 0° 343° (NNW) 3,243 6.7 -33.9°
